Regional Weather Roundup
Issued by NWS

Home | Current Version | Previous Version | Graphics & Text | Print | Product List | Glossary On
Versions: 1 2 3 4 5 6 7 8 9 10 11 12 13 14 15 16 17 18 19 20 21 22 23 24 25 26 27 28 29 30 31 32 33 34 35 36 37 38 39 40 41 42 43 44 45 46 47 48 49 50
000
ASUS43 KMPX 260201
RWRMN
WEATHER ROUNDUP FOR MINNESOTA
NATIONAL WEATHER SERVICE TWIN CITIES/CHANHASSEN MN
800 PM CST SUN JAN 25 2015


NOTE: "FAIR" INDICATES FEW OR NO CLOUDS BELOW 12,000 FEET WITH NO
SIGNIFICANT WEATHER AND/OR OBSTRUCTIONS TO VISIBILITY. N/A MEANS
CURRENT SKY AND/OR WEATHER CONDITIONS ARE NOT AVAILABLE.

MNZ060>063-068>070-260300-
   Twin Cities Metro

CITY           SKY/WX    TMP DP  RH WIND       PRES   REMARKS
TWIN CITIES    MOCLDY    23  15  71 VRB5      30.07R WCI  17
ST PAUL        MOCLDY    21  14  74 S3        30.09R
CRYSTAL        MOCLDY    23  15  71 S6        30.04S WCI  16
BLAINE         CLEAR     23  16  74 CALM      30.04S
LAKEVILLE      MOCLDY    18  16  93 CALM      30.06R
EDEN PRAIRIE   MOCLDY    21  15  78 SE6       30.05R WCI  13
SOUTH ST PAUL  MOCLDY    22  15  74 CALM      30.07S
LAKE ELMO      FAIR      19  14  79 CALM      30.06F
$$
MNZ001>005-007-008-013>017-022>024-027-028-260300-
   Northwest Minnesota

CITY           SKY/WX    TMP DP  RH WIND       PRES   REMARKS
BEMIDJI        CLOUDY    25  18  77 S8        29.89F WCI  16
HALLOCK        CLOUDY    23  19  86 S18       29.83F WCI   9
ROSEAU         CLOUDY    19  12  73 S12       29.85F WCI   7
WARROAD        CLOUDY    19  12  73 S7        29.85F WCI  10
THIEF RVR FALL CLOUDY    21  18  86 S12       29.88F WCI   9
CROOKSTON      CLOUDY    25  19  80 S15       29.89F WCI  12
FOSSTON        CLOUDY    21  16  79 S9        29.90F WCI  11
DETROIT LAKES  CLOUDY    25  21  86 SW9       29.93F WCI  15
MOORHEAD       CLOUDY    27  23  86 S9        29.94F WCI  17
PARK RAPIDS    CLOUDY    25  19  78 S8        29.90F WCI  16
MAHNOMEN       MOCLDY    23  19  83 S9        29.91F WCI  13
$$
MNZ006-009>011-018-025>026-260300-
   North Central Minnesota

CITY           SKY/WX    TMP DP  RH WIND       PRES   REMARKS
BAUDETTE       CLOUDY    21  14  74 S8        29.85F WCI  11
FLAG ISLAND    CLOUDY    18  10  73 S12       29.83F WCI   5
INTL FALLS     CLOUDY    20  12  71 S5        29.88F WCI  13
WASKISH        CLOUDY    19  16  86 CALM      29.88F
BIG FORK       CLOUDY    23  14  68 S9        29.90F WCI  13
LONGVILLE      CLOUDY    23  16  74 S8        29.94F WCI  14
GRAND RAPIDS   CLOUDY    21  12  68 S9        29.93F WCI  11
CRANE LAKE     CLOUDY    19  12  73 S5        29.95S WCI  13
ORR            CLOUDY    19  10  68 S10       29.90F WCI   8
COOK           CLOUDY    19  12  73 S7        29.94F WCI  10
WALKER         FAIR      25  16  69 S6        29.92F WCI  18
$$
MNZ012-019>021-037-260300-
   Northeast Minnesota

CITY           SKY/WX    TMP DP  RH WIND       PRES   REMARKS
DULUTH         CLOUDY    18  13  80 SE3       29.97F
ELY            CLOUDY    16   9  73 S8        29.94F WCI   5
HIBBING        CLOUDY    20  12  71 S8        29.95F WCI  10
EVELETH        CLOUDY    19  14  79 S9        29.97F WCI   9
DULUTH HARBOR  CLOUDY    21  16  79 CALM      30.04F
TWO HARBORS    CLOUDY    21  16  79 CALM      29.99F
SILVER BAY     FLURRIES  18  14  86 CALM      29.99F
GRAND MARAIS     N/A     17  11  77 CALM      30.05F
G MARAIS ARPRT LGT SNOW   9   3  78 CALM      29.95F
$$
MNZ029>031-032-039>041-046>048-054>057-064-260300-
   West Central Minnesota

CITY           SKY/WX    TMP DP  RH WIND       PRES   REMARKS
FERGUS FALLS   CLOUDY    21  21 100 S7        30.00F WCI  13
WHEATON        CLOUDY    25  19  80 SE9       29.99F WCI  15
MORRIS         MOCLDY    25  23  93 S6        29.98F WCI  18
ALEXANDRIA     CLOUDY    24  21  88 SW7       29.97F WCI  16
ELBOW LAKE     FAIR      22  21  96 S6        29.97F WCI  15
WADENA         CLOUDY    23  19  86 SW7       29.94F WCI  15
GLENWOOD       CLOUDY    25  25 100 SW6       29.98F WCI  18
APPLETON       CLOUDY    27  25  93 CALM      30.01F
BENSON         CLOUDY    27  23  86 CALM      30.01F
ORTONVILLE     CLOUDY    27  21  80 S5        30.01S WCI  21
MADISON        CLOUDY    30  28  93 S5        30.02S WCI  25
WILLMAR        CLOUDY    28  25  86 S5        30.04F WCI  23
$$
MNZ033>034-036-042>043-049>051-058-059-260300-
   Central Minnesota

CITY           SKY/WX    TMP DP  RH WIND       PRES   REMARKS
ST CLOUD       PTCLDY    22  18  85 SE5       30.00F WCI  16
SAUK CENTRE    CLOUDY    26  22  85 S7        29.99F WCI  18
PAYNESVILLE    CLOUDY    23  20  89 E5        30.01F WCI  17
AITKIN         MOCLDY    23  16  74 S3        29.96F
PINE RIVER     CLOUDY    25  16  68 S6        29.98F WCI  18
BRAINERD       MOCLDY    22  15  75 S8        29.98F WCI  12
STAPLES        CLOUDY    23  18  80 S7        29.95F WCI  15
LONG PRAIRIE   MOCLDY    25  21  86 S6        29.97F WCI  18
LITTLE FALLS   CLOUDY    25  18  74 S3        29.99F
LITCHFIELD     CLOUDY    25  21  86 CALM      30.03F
BUFFALO        MOCLDY    22  16  76 CALM      30.05F
MAPLE LAKE     PTCLDY    22  20  89 S3        30.05S
$$
MNZ037-044-045-052-053-260300-
   East Central Minnesota

CITY           SKY/WX    TMP DP  RH WIND       PRES   REMARKS
PRINCETON      MOCLDY    21  16  79 CALM      30.01F
MORA           MOCLDY    21  14  73 SW3       30.03F
CAMBRIDGE      CLOUDY    21  12  68 CALM      30.00F
RUSH CITY      CLOUDY    19  15  83 CALM      30.03F
MOOSE LAKE     MOCLDY    19  14  79 CALM      29.99F
HINCKLEY       FAIR      23  18  80 S3        30.01F
CLOQUET        CLOUDY    18  12  79 CALM      29.98F
MCGREGOR       MOCLDY    19  16  86 SE3       29.98F
$$
MNZ071>073-080-081-089-090-097-098-260300-
   Southwest Minnesota

CITY           SKY/WX    TMP DP  RH WIND       PRES   REMARKS
MONTEVIDEO     CLOUDY    27  27 100 CALM      30.04S
GRANITE FALLS  CLOUDY    28  26  90 CALM      30.05F
CANBY          CLOUDY    28  27  95 CALM      30.03S FOG
MARSHALL       CLOUDY    27  23  86 CALM      30.04S
REDWOOD FALLS  CLOUDY    30  24  78 SE3       30.04R
OLIVIA         CLOUDY    28  27  93 S5        30.03S WCI  23
PIPESTONE      CLOUDY    34  30  86 W7        30.00R WCI  28
WINDOM         CLOUDY    28  27  93 CALM      30.04R
WORTHINGTON    CLOUDY    28  25  86 CALM      30.03R
JACKSON        CLOUDY    30  27  86 CALM      30.03S
TRACY          CLOUDY    28  27  95 CALM      30.02F
SLAYTON        CLOUDY    29  28  96 CALM      30.03R
$$
MNZ065>067-074>077-082>085-091>093-260300-
   South Central Minnesota

CITY           SKY/WX    TMP DP  RH WIND       PRES   REMARKS
MANKATO        MOCLDY    23  16  74 SE5       30.05R WCI  17
NEW ULM        CLOUDY    27  19  74 SE3       30.06R
ST JAMES       CLOUDY    28  25  86 E3        30.06S
FAIRMONT       CLOUDY    28  21  74 CALM      30.04S
GLENCOE        MOCLDY    23  20  90 CALM      30.05S
FARIBAULT      PTCLDY    19  18  93 CALM      30.06S
OWATONNA       PTCLDY    21  18  86 CALM      30.04S
WASECA         MOCLDY    23  19  86 NE3       30.06S
ALBERT LEA     PTCLDY    23  21  93 CALM      30.04S
$$
MNZ078>079-086>088-094>096-260300-
   Southeast Minnesota

CITY           SKY/WX    TMP DP  RH WIND       PRES   REMARKS
ROCHESTER      CLOUDY    23  16  74 NW6       30.04S WCI  16
RED WING       PTCLDY    18  12  79 CALM      30.06F
STANTON        PTCLDY    22  18  84 CALM      30.05S
DODGE CENTER   CLOUDY    23  19  86 CALM      30.03F
WINONA         CLEAR     21  16  79 CALM      30.09S
AUSTIN         CLOUDY    25  19  80 CALM      30.04S
PRESTON        CLOUDY    24  18  79 N3        30.05R
$$
ABBREVIATIONS USED IN REMARKS
   TC - TEMPERATURES IN CELSIUS
  WCI - WIND CHILL INDEX
   HX - HEAT INDEX
  VSB - VISIBILITY
$$


USA.gov is the U.S. government's official web portal to all federal, state and local government web resources and services.